Weather History for Prague, Czech Republic

Change the Weather History Date:

Wednesday, September 5, 2012

  Actual Average Record
Temperature  
Mean Temperature 63 °F -  
Max Temperature 74 °F 64 °F 77 °F (1997)
Min Temperature 52 °F 46 °F 41 °F (2007)
Degree Days  
Heating Degree Days 2    
Growing Degree Days 13 (Base 50)    
Moisture  
Dew Point 54 °F    
Average Humidity 76    
Maximum Humidity 100    
Minimum Humidity 46    
Precipitation  
Precipitation 0.02 in 0.05 in - ()
Sea Level Pressure  
Sea Level Pressure 30.10 in    
Wind  
Wind Speed 4 mph ()    
Max Wind Speed 15 mph    
Max Gust Speed -    
Visibility 6.6 miles    
Events      
Averages and records for this station are not official NWS values.
T = Trace of Precipitation, MM = Missing Value Source: Averaged Metar Reports

Daily Weather History Graph

Daily Weather History Graph

Search for Another Location

Airport:

Trip Planner

Search our weather history database for the weather conditions in past years. The results will help you decide how hot, cold, wet, or windy it might be!

Date:

Astronomy

Sep. 05, 2012 Rise Set
Actual Time 6:24 AM CEST 7:37 PM CEST
Civil Twilight 5:50 AM CEST 8:11 PM CEST
Nautical Twilight 5:10 AM CEST 8:51 PM CEST
Astronomical Twilight 4:26 AM CEST 9:34 PM CEST
Moon 9:19 PM CEST (9/5) 11:47 AM CEST (9/5)
Length of Visible Light 14h 20m
Length of Day
13h 13m
Waning Gibbous, 78% of the Moon is Illuminated
Sep 5
Waning Gibbous
Sep 8
Last Quarter
Sep 16
New
Sep 22
First Quarter
Sep 30
Full

Hourly Weather History & Observations

Time (CEST) Temp. Dew Point Humidity Pressure Visibility Wind Dir Wind Speed Gust Speed Precip Events Conditions
12:00 AM 59.0 °F 53.6 °F 82% 30.12 in - West 2.3 mph - N/A   Clear
12:30 AM 57.2 °F 53.6 °F 88% 30.12 in - Variable 2.3 mph - N/A   Clear
1:00 AM 57.2 °F 53.6 °F 88% 30.12 in - West 2.3 mph - N/A   Clear
1:30 AM 57.2 °F 53.6 °F 88% 30.12 in - NW 2.3 mph - N/A   Clear
2:00 AM 55 °F 52 °F 87% 30.14 in 9 mi West 4.5 mph - -  
2:00 AM 55.4 °F 51.8 °F 88% 30.12 in - West 3.5 mph - N/A   Clear
2:30 AM 55.4 °F 53.6 °F 94% 30.12 in - WNW 3.5 mph - N/A   Clear
3:00 AM 55.4 °F 53.6 °F 94% 30.12 in - WNW 3.5 mph - N/A   Clear
3:30 AM 55.4 °F 53.6 °F 94% 30.12 in - West 2.3 mph - N/A   Clear
4:00 AM 55.4 °F 51.8 °F 88% 30.12 in - WNW 4.6 mph - N/A   Clear
4:30 AM 53.6 °F 51.8 °F 94% 30.12 in - WSW 4.6 mph - N/A   Clear
5:00 AM 53.6 °F 51.8 °F 94% 30.12 in 5.6 mi WSW 5.8 mph - N/A   Unknown
5:30 AM 53.6 °F 51.8 °F 94% 30.12 in 5.6 mi WSW 2.3 mph - N/A   Unknown
6:00 AM 51.8 °F 50.0 °F 94% 30.09 in 5.0 mi West 3.5 mph - N/A   Unknown
6:30 AM 51.8 °F 51.8 °F 100% 30.09 in 5.0 mi WSW 3.5 mph - N/A   Unknown
7:00 AM 51.8 °F 51.8 °F 100% 30.09 in 5.6 mi SW 3.5 mph - N/A   Scattered Clouds
7:30 AM 55.4 °F 53.6 °F 94% 30.09 in 5.6 mi WNW 3.5 mph - N/A   Partly Cloudy
8:00 AM 56 °F 54 °F 92% 30.11 in 5 mi SW 4.5 mph - -   Mist
8:00 AM 57.2 °F 55.4 °F 94% 30.09 in 5.0 mi Variable 1.2 mph - N/A   Unknown
8:30 AM 59.0 °F 55.4 °F 88% 30.12 in 5.6 mi Calm Calm - N/A   Unknown
9:00 AM 60.8 °F 55.4 °F 82% 30.12 in 5.6 mi Variable 1.2 mph - N/A   Unknown
9:30 AM 62.6 °F 55.4 °F 77% 30.12 in - Variable 1.2 mph - N/A   Clear
10:00 AM 64.4 °F 57.2 °F 77% 30.12 in - Calm Calm - N/A   Clear
10:30 AM 66.2 °F 55.4 °F 68% 30.12 in - Calm Calm - N/A   Clear
11:00 AM 68.0 °F 55.4 °F 64% 30.12 in 6.2 mi Variable 2.3 mph - N/A   Partly Cloudy
11:30 AM 68.0 °F 55.4 °F 64% 30.12 in 6.2 mi WNW 3.5 mph - N/A   Partly Cloudy
12:00 PM 69.8 °F 55.4 °F 60% 30.12 in 6.2 mi Variable 2.3 mph - N/A   Partly Cloudy
12:30 PM 69.8 °F 55.4 °F 60% 30.09 in 6.2 mi Variable 2.3 mph - N/A   Scattered Clouds
1:00 PM 71.6 °F 55.4 °F 57% 30.09 in 6.2 mi Variable 2.3 mph - N/A   Scattered Clouds
1:30 PM 71.6 °F 55.4 °F 57% 30.09 in 6.2 mi Variable 2.3 mph - N/A   Scattered Clouds
2:00 PM 72 °F 56 °F 46% 30.06 in 19 mi NNW 4.5 mph - -   Partly Cloudy
2:00 PM 71.6 °F 57.2 °F 60% 30.09 in 6.2 mi Variable 2.3 mph - N/A   Partly Cloudy
2:30 PM 71.6 °F 57.2 °F 60% 30.09 in 6.2 mi NNW 4.6 mph - N/A   Scattered Clouds
3:00 PM 71.6 °F 53.6 °F 53% 30.06 in 6.2 mi NW 4.6 mph - N/A   Scattered Clouds
3:30 PM 73.4 °F 53.6 °F 50% 30.06 in 6.2 mi NNE 4.6 mph - N/A   Scattered Clouds
4:00 PM 73.4 °F 53.6 °F 50% 30.06 in 6.2 mi North 6.9 mph - N/A   Scattered Clouds
4:30 PM 73.4 °F 53.6 °F 50% 30.06 in 6.2 mi NNW 8.1 mph - N/A   Scattered Clouds
5:00 PM 75.2 °F 55.4 °F 50% 30.06 in 6.2 mi North 6.9 mph - N/A   Scattered Clouds
5:30 PM 71.6 °F 55.4 °F 57% 30.06 in 6.2 mi North 15.0 mph - N/A   Partly Cloudy
6:00 PM 69.8 °F 55.4 °F 60% 30.06 in - North 13.8 mph - N/A   Clear
6:30 PM 68.0 °F 55.4 °F 64% 30.06 in - North 10.4 mph - N/A   Clear
7:00 PM 66.2 °F 55.4 °F 68% 30.06 in - North 9.2 mph - N/A   Clear
7:30 PM 64.4 °F 55.4 °F 73% 30.06 in - North 8.1 mph - N/A   Clear
8:00 PM 63 °F 54 °F 66% 30.08 in 12 mi NNE 11.2 mph - -   Scattered Clouds
8:00 PM 62.6 °F 55.4 °F 77% 30.09 in - North 10.4 mph - N/A   Clear
8:30 PM 62.6 °F 55.4 °F 77% 30.09 in - North 10.4 mph - N/A   Clear
9:00 PM 60.8 °F 55.4 °F 82% 30.12 in - North 8.1 mph - N/A   Clear
9:30 PM 60.8 °F 55.4 °F 82% 30.12 in - North 6.9 mph - N/A   Clear
10:00 PM 60.8 °F 55.4 °F 82% 30.12 in 6.2 mi North 5.8 mph - N/A   Mostly Cloudy
10:30 PM 60.8 °F 55.4 °F 82% 30.12 in 6.2 mi North 4.6 mph - N/A   Mostly Cloudy
11:00 PM 60.8 °F 57.2 °F 88% 30.12 in 6.2 mi North 4.6 mph - N/A   Mostly Cloudy
11:31 PM 60.8 °F 57.2 °F 88% 30.15 in 6.2 mi NNW 5.8 mph - N/A   Scattered Clouds